Regional Weather Roundup
Issued by NWS Jackson, KY

Home | Current Version | Previous Version | Text Only | Print | Product List | Glossary Off
Versions: 1 2 3 4 5 6 7 8 9 10 11 12 13 14 15 16 17 18 19 20 21 22 23 24 25 26 27

000
ASUS43 KJKL 261010
RWRJKL

EAST KENTUCKY HOURLY WEATHER ROUNDUP
NATIONAL WEATHER SERVICE JACKSON KY
600 AM EDT SUN MAR 26 2017

NOTE: "FAIR" INDICATES FEW OR NO CLOUDS BELOW 12,000 FEET WITH
NO SIGNIFICANT WEATHER AND/OR OBSTRUCTIONS TO VISIBILITY.

* THESE REPORTS ARE NOT UNDER NWS QUALITY CONTROL AND MAY NOT
  REPORT WEATHER SUCH AS PRECIPITATION AND FOG.

KYZ079-080-083-085-087-088-110-112-115-119-120-261100
...EASTERN KENTUCKY...

CITY           SKY/WX    TMP DP  RH WIND       PRES   REMARKS
JACKSON        MOCLDY    61  46  57 SW3       30.01R
LONDON         RAIN      56  53  90 SE6       30.02S FOG
SOMERSET*      RAIN      55  55 100 CALM      30.02S
MONTICELLO*    LGT RAIN  57  56  96 W7        30.03R
WILLIAMSBURG*  CLOUDY    55  55 100 SE8       30.03F
MIDDLESBORO*   LGT RAIN  56  55  95 S5        30.07R
HARLAN APT*    CLOUDY    63  46  55 S3        30.04R
PIKE CO APT*     N/A     62  47  57 SE8       30.02F
BIG SANDY APT* CLOUDY    63  47  55 SE7       30.02S
MOREHEAD APT*  CLOUDY    61  46  59 W3        30.02R
ASHLAND*       CLOUDY    39 N/A N/A CALM      29.98R
$$

KYZ035-036-041-042-044-050-067-078-099-261100
...CENTRAL KENTUCKY...

CITY           SKY/WX    TMP DP  RH WIND       PRES   REMARKS
MT STERLING*   RAIN      57  54  88 W6        30.03R
FLEMING/MASON* CLOUDY    57  50  77 SW5       30.02R
DANVILLE*      LGT RAIN  54  54 100 S6        30.02R
LEXINGTON      RAIN      57  54  89 S8        30.00S FOG
FRANKFORT      RAIN      57  53  86 S12       29.98S FOG
LOUISVILLE     LGT RAIN  58  56  93 SE8       29.96R
LEBANON*       LGT RAIN  55  55 100 S9        29.99S
GLASGOW*       CLOUDY   N/A N/A N/A S6        29.97R
BOWLING GREEN  LGT RAIN  58  56  93 SE7       29.95F
$$

KYZ091>093-OHZ055-061-077-WVZ005-015-034-035-042-261100
...SOUTHERN OHIO/WEST VIRGINIA...

CITY           SKY/WX    TMP DP  RH WIND       PRES   REMARKS
COVINGTON      LGT RAIN  58  56  93 S6        29.98R
COLUMBUS       MOCLDY    62  49  62 S6        29.97S
DAYTON         CLOUDY    58  53  84 SW3       29.98F
WILMINGTON     CLOUDY    55  49  80 SW3       29.97F
HUNTINGTON     MOCLDY    63  45  51 SE6       29.99S
CHARLESTON     CLOUDY    55  47  74 CALM      30.03S
PINEVILLE*     CLOUDY    49  44  84 MISG      30.12S
BECKLEY        CLOUDY    55  45  68 SE9       30.10F
BLUEFIELD      CLOUDY    55  44  66 S9        30.13
LOGAN CO APT*    N/A     61  46  59 CALM      30.04S
$$

VAZ002-007-008-TNZ017-027-036-066-071-261100
...SOUTHWEST VIRGINIA/EAST TENNESSEE...

CITY           SKY/WX    TMP DP  RH WIND       PRES   REMARKS
WISE*          CLOUDY    59  45  58 S13G21    30.07S
JONESVILLE*    CLOUDY    63  50  63 S6        30.07R
ABINGDON*      PTCLDY    60  47  62 S6        30.08S
BRISTOL        CLOUDY    61  48  62 CALM      30.07R
MORRISTOWN*    CLOUDY    59  54  82 W7        30.05R HAZE
SEVIERVILLE*   CLOUDY    59  54  82 W9        30.06R
KNOXVILLE      RAIN      59  56  89 SE8       30.04S
LAFOLLETTE*    CLOUDY    59  55  88 VRB7      30.07S FOG
OAK RIDGE      LGT RAIN  59  56  89 CALM      30.06S FOG
CROSSVILLE     CLOUDY    57  54  89 S9        30.03S
NASHVILLE      CLOUDY    58  56  93 S10       29.97R
$$

...KEY TO REMARKS...
VSB - VISIBILITY IN MILES
WCI - WIND CHILL INDEX
HX  - HEAT INDEX

$$




USA.gov is the U.S. government's official web portal to all federal, state and local government web resources and services.